#timestamp,LO_Frequency,Hit,StdDev 
1698735635.2,286047005.5,N
1698735655.9,286047003.4,P
1698735675.7,286047003.6,P
1698735695.6,286047002.6,N
1698735715.4,286047009.0,Y
1698735735.2,286047007.3,P
1698735755.1,286047003.6,N
1698735756.0,286047003.6,N
1698735775.8,286047004.7,N
1698735795.7,286047002.5,N
1698735815.5,286046999.1,N
1698735835.3,286046994.3,N
1698735855.2,286046993.4,N
1698735875.9,286047000.8,N
1698735895.7,286047002.1,N
1698735915.6,286047006.3,N
1698735935.4,286047002.2,N
1698735955.3,286047000.4,N
1698735975.1,286046999.3,N
1698735976.0,286046999.3,N
1698735995.8,286047001.5,N
1698736015.7,286047003.4,N
1698736035.5,286046999.8,N
1698736055.3,286047004.2,N
1698736075.2,286047002.6,N
1698736095.0,286046997.1,N
1698736095.9,286046997.1,N
1698736115.8,286046992.2,N
1698736135.6,286046992.0,N
1698736155.4,286046991.0,N
1698736175.3,286046988.6,N
1698736195.1,286046990.7,N
1698736215.8,286046992.5,N
1698736235.7,286046999.5,N
1698736255.5,286047002.4,N
1698736275.4,286047000.1,N
1698736295.2,286047002.3,N
1698736315.0,286047003.9,N
1698736316.0,286047003.9,N
1698736335.8,286047002.4,N
1698736355.6,286046999.5,N
1698736375.5,286046999.9,N
1698736395.3,286047001.0,N
1698736415.2,286047000.7,N
1698736435.9,286046999.7,N
1698736455.7,286047001.3,N
1698736475.6,286047004.0,N
1698736495.4,286047009.3,N
1698736515.2,286047010.4,N
1698736535.1,286047009.9,N
1698736536.0,286047009.9,N
1698736555.8,286047013.4,N
1698736575.7,286047011.5,N
1698736595.5,286047006.6,N
1698736615.3,286047006.3,N
1698736635.2,286047010.6,N
1698736655.0,286047008.4,N
1698736655.9,286047008.4,N
1698736675.8,286047010.1,N
1698736695.6,286047012.2,N
1698736715.4,286047006.2,N
1698736735.3,286047010.6,N
1698736755.1,286047011.1,N
1698736775.8,286047009.0,N
1698736795.7,286047008.0,N
1698736815.5,286047011.1,N
1698736835.3,286047010.0,N
1698736855.2,286047011.3,N
1698736875.0,286047011.5,N
1698736875.9,286047011.5,N
1698736895.8,286047013.5,Y
1698736915.6,286047003.4,P
1698736935.4,286047000.9,N
1698736955.3,286047002.7,N
1698736975.1,286047002.4,N
1698736995.9,286047001.8,N
1698737015.7,286047004.6,N
1698737035.5,286047012.3,Y
1698737055.4,286047004.6,P
1698737075.2,286047003.0,P
1698737095.1,286047001.8,N
1698737096.0,286047001.8,N
1698737115.8,286047007.3,Y
1698737135.6,286047001.6,P
1698737155.5,286047001.6,N
1698737175.3,286046998.8,N
1698737195.1,286047000.3,N
1698737215.9,286046996.5,N
1698737235.7,286047000.6,N
1698737255.6,286046997.7,N
1698737275.4,286046995.0,N
1698737295.2,286046996.9,N
1698737315.1,286046997.0,N
1698737316.0,286046997.0,N
1698737335.8,286046999.0,N
1698737355.7,286046994.8,N
1698737375.5,286046991.6,Y
1698737395.3,286046992.4,P
1698737415.2,286046991.4,N
1698737435.0,286046990.5,P
1698737435.9,286046990.5,Y
1698737455.7,286047001.7,P
1698737475.6,286047001.5,N
1698737495.4,286047001.6,N
1698737515.3,286047003.4,N
1698737535.1,286047005.8,N
1698737555.8,286047007.6,N
1698737575.7,286047007.6,N
1698737595.5,286047002.0,N
1698737615.4,286047007.4,N
1698737635.2,286047004.6,N
1698737655.0,286047008.7,N
1698737655.9,286047008.7,N
1698737675.8,286047007.5,N
1698737695.6,286047009.3,N
1698737715.5,286047008.5,N
1698737735.3,286047013.2,Y
1698737755.1,286047004.8,P
1698737775.9,286047003.2,P
1698737795.7,286047007.3,P
1698737815.6,286047005.4,Y
1698737835.4,286046998.9,P
1698737855.2,286046996.8,N
1698737875.1,286046997.6,N
1698737876.0,286046997.6,N
1698737895.8,286046994.1,N
1698737915.6,286046992.2,N
1698737935.5,286046996.4,N
1698737955.3,286046993.4,N
1698737975.2,286046993.3,N
1698737995.9,286046993.9,N
1698738015.7,286046999.2,N
1698738035.6,286046995.4,N
1698738055.4,286046993.9,N
1698738075.2,286046996.6,N
1698738095.1,286046997.1,N
1698738096.0,286046997.1,N
1698738115.8,286046997.0,N
1698738135.7,286046993.0,N
1698738155.5,286046990.8,Y
1698738175.3,286046997.5,P
1698738195.2,286046996.9,P
1698738215.0,286046995.0,P
1698738215.9,286046995.0,Y
1698738235.8,286046995.7,P
1698738255.6,286046998.6,P
1698738275.4,286046998.4,N
1698738295.3,286046998.4,N
1698738315.1,286047000.7,N
1698738335.8,286046999.8,N
1698738355.7,286046996.6,N
1698738375.5,286046997.4,N
1698738395.4,286046994.8,Y
1698738415.2,286046997.3,P
1698738435.0,286046998.2,P
1698738435.9,286046998.2,P
1698738455.8,286047011.9,Y
1698738475.6,286047002.2,P
1698738495.5,286047004.0,N
1698738515.3,286047002.4,N
1698738535.1,286047006.4,N
1698738555.9,286047008.5,Y
1698738575.7,286047001.6,P
1698738595.5,286046998.5,P
1698738615.4,286046998.6,N
1698738635.2,286046996.9,N
1698738655.1,286046993.3,Y
1698738656.0,286046993.3,P
1698738675.8,286046997.1,N
1698738695.6,286046997.6,N
1698738715.5,286046998.8,N
1698738735.3,286046998.4,N
1698738755.1,286046995.3,N
1698738775.9,286046994.3,N
1698738795.7,286046993.0,Y
1698738815.6,286046999.6,P
1698738835.4,286046996.8,N
1698738855.2,286047000.5,N
1698738875.1,286047000.0,N
1698738876.0,286047000.0,N
1698738895.8,286047002.3,N
1698738915.7,286047002.8,N
1698738935.5,286047003.1,N
1698738955.3,286046999.4,N
1698738975.2,286046993.5,Y
1698738995.0,286046993.0,P
1698738995.9,286046993.0,N
1698739015.7,286046990.7,N
1698739035.6,286046993.0,N
1698739055.4,286046989.7,Y
1698739075.3,286046996.4,P
1698739095.1,286046993.9,P
1698739096.0,286046993.9,P
1698739115.8,286047001.3,N
1698739135.7,286047007.1,N
1698739155.5,286047004.6,N
1698739175.4,286047002.8,N
1698739195.2,286046999.3,N
